Tiempo atmosférico en la estación meteorológica de Briviesca, Burgos (730 m.)



Fecha
DESCASC
Temp. máxima en grados centígrados (hora)
DESCASC
Temp. mínima en grados centígrados (hora)
DESCASC
Temp. media en grados centígrados
DESCASC
Racha de viento máxima en m/sg (hora)
DESCASC
Velocidad máxima media en intervalos de 10 minutos(hora)
DESCASC
Precipitaciones diarias en mm
DESCASC
Precipitaciones de 00:00 a 06:00 en mm
DESCASC
Precipitaciones de 06:00 a 12:00 en mm
DESCASC
Precipitaciones de 12:00 a 18:00 en mm
DESCASC
Precipitaciones de 18:00 a 24:00 en mm
DESCASC
22-01-2020 6.4 (15:10) 1.6 (01:00) 4 6.39 (03:50) 4.17 (03:50) 0.4 0.4 0 0 0
21-01-2020 2.1 (12:00) -0.5 (02:10) 0.8 8.61 (12:30) 5.83 (03:10) 7.8 0 0.2 6 1.6
20-01-2020 1.9 (14:30) -0.4 (06:40) 0.7 11.94 (04:20) 8.89 (03:30) 0 0 0 0 0
19-01-2020 5 (13:20) 1.5 (00:00) 3.3 13.89 (13:10) 10 (13:30) 0.8 0.4 0.4 0 0
18-01-2020 10.5 (15:40) 1.1 (00:00) 5.8 13.33 (18:40) 7.5 (16:10) 10.6 0 0 0.2 10.4
17-01-2020 9.9 (15:00) 1.7 (00:00) 5.8 21.39 (01:20) 13.89 (01:20) 1 0 1 0 0
16-01-2020 13.6 (13:50) 5.3 (00:00) 9.5 16.39 (22:00) 10.28 (22:10) 0.4 0 0 0 0.4
15-01-2020 11.3 (13:00) 6.4 (00:00) 8.9 16.67 (04:10) 10.83 (04:10) 0 0 0 0 0
14-01-2020 9.7 (15:50) 0.3 (00:00) 5 14.44 (15:30) 9.44 (12:50) 0 0 0 0 0
13-01-2020 9.1 (15:30) -3.2 (-00:0) 3 11.11 (16:20) 7.22 (16:20) 0 0 0 0 0
12-01-2020 10 (17:20) -2.9 (-00:0) 3.5 6.67 (23:59) 4.44 (23:59) 0 0 0 0 0
11-01-2020 9.4 (17:00) -0.2 (00:00) 4.6 5.56 (20:20) 3.89 (19:30) 0 0 0 0 0
10-01-2020 7.3 (13:40) 1.4 (00:00) 4.4 7.78 (05:40) 4.17 (14:00) 0.6 0 0 0.2 0.4
09-01-2020 11.1 (14:30) 1 (00:00) 6.1 13.06 (15:40) 8.89 (13:40) 0.4 0 0 0 0.4
08-01-2020 13.5 (15:50) 0.9 (00:00) 7.2 7.22 (19:40) 4.72 (19:30) 0 0 0 0 0
07-01-2020 13.5 (16:30) -1.9 (-00:0) 5.8 5.28 (19:40) 3.61 (19:30) 0 0 0 0 0
06-01-2020 9.9 (15:50) -3.1 (-00:0) 3.4 6.11 (20:10) 3.89 (20:10) 0 0 0 0 0
05-01-2020 11.4 (16:00) -1.2 (-00:0) 5.1 5.83 (22:30) 3.61 (22:30) 0 0 0 0 0
04-01-2020 7.6 (14:10) 2 (00:00) 4.8 5.28 (14:30) 3.61 (14:30) 0 0 0 0 0
03-01-2020 6.6 (16:30) -0.9 (-00:0) 2.8 7.78 (09:00) 5.28 (09:10) 0 0 0 0 0
02-01-2020 10.5 (16:20) -3.8 (-00:0) 3.4 4.72 (17:10) 3.61 (17:10) 0 0 0 0 0
01-01-2020 11.2 (16:10) -4 (-00:0) 3.6 3.89 (18:30) 2.78 (18:40) 0 0 0 0 0
31-12-2019 8.2 (16:00) -4.7 (-00:0) 1.8 3.33 (21:50) 2.22 (21:50) 0.2 0 0.2 0 0
30-12-2019 -- (--) -- (--) -- -- (--) -- (--) -- 0 0 -- 0
29-12-2019 9.4 (15:50) -1.4 (-00:0) 4 5.28 (00:10) 3.33 (03:10) 0 0 0 0 0
28-12-2019 11.1 (17:10) -4 (-00:0) 3.6 5.28 (23:10) 3.33 (20:30) 0.2 0 0.2 0 0
27-12-2019 3.3 (00:00) -3 (-00:0) 0.1 4.17 (01:40) 3.06 (01:30) 0 0 0 0 0

Gráficas

Temp. máximas Temp. mínimas Temp. medias Precipitaciones Rachas de viento máximas Velocidades máximas media en intervalos de 10 minutos

Datos horarios

Fecha y hora oficial Temperatura (ºC) Velocidad del viento (km/h) Dirección del viento Racha (km/h) Dirección de racha Precipitación (mm) Presión (hPa) Tendencia (hPa) Humedad (%)
2020-01-25 23:00:00 5 0 Calma 7 Noroeste 0.2 -- -- 100
2020-01-25 22:00:00 5.1 2 Noroeste 4 Noroeste 0.4 -- -- 100
2020-01-25 21:00:00 5.3 0 Calma 3 Noroeste 0.2 -- -- 100
2020-01-25 20:00:00 5.4 0 Calma 2 Norte 0.8 -- -- 100
2020-01-25 19:00:00 5.5 4 Sur 8 Sudoeste 1 -- -- 100
2020-01-25 18:00:00 5.4 2 Oeste 14 Este 1.6 -- -- 99
2020-01-25 17:00:00 5.5 4 Sur 14 Este 0 -- -- 97
2020-01-25 16:00:00 6 5 Sudeste 16 Este 0 -- -- 95
2020-01-25 15:00:00 6 6 Este 18 Este 0 -- -- 97
2020-01-25 14:00:00 5.1 4 Este 12 Este 0 -- -- 100
2020-01-25 13:00:00 4.8 6 Este 10 Este 0.4 -- -- 100
2020-01-25 12:00:00 4 0 Calma 5 Sur 0.6 -- -- 100
2020-01-25 11:00:00 3.6 3 Sudoeste 6 Sur 0 -- -- 100
2020-01-25 10:00:00 3.4 3 Sudoeste 6 Sur 0.2 -- -- 100
2020-01-25 09:00:00 3.3 5 Sudeste 13 Este 0 -- -- 100
2020-01-25 08:00:00 3.4 5 Sudeste 14 Este 0 -- -- 100
2020-01-25 07:00:00 3.6 7 Este 15 Este 0 -- -- 100
2020-01-25 06:00:00 3.8 5 Sudeste 13 Sudeste 0 -- -- 100
2020-01-25 05:00:00 3.8 5 Sudeste 10 Sudeste 0 -- -- 100
2020-01-25 04:00:00 3.8 7 Sudeste 12 Sudeste 0 -- -- 100
2020-01-25 03:00:00 4.2 3 Sudeste 6 Sudeste 0 -- -- 100
2020-01-25 02:00:00 4.4 0 Calma 7 Sudoeste 0 -- -- 100
2020-01-25 01:00:00 4.3 3 Sudoeste 6 Sudoeste 0 -- -- 100
2020-01-25 00:00:00 4.4 4 Sudeste 6 Este 0.2 -- -- 100
2020-01-24 23:00:00 4.4 4 Este 7 Este 0.2 -- -- 100
2020-01-24 22:00:00 4.4 3 Sur 7 Sudoeste 0 -- -- 100
2020-01-24 21:00:00 4.4 0 Calma 8 Sudoeste 0 -- -- 100
2020-01-24 20:00:00 4.2 0 Calma 7 Sur 0 -- -- 100
2020-01-24 19:00:00 4.1 5 Sur 12 Sudeste 0 -- -- 100
2020-01-24 18:00:00 4.4 7 Sudeste 14 Sudeste 0 -- -- 100
2020-01-24 17:00:00 4.6 4 Sudeste 10 Este 0 -- -- 100
2020-01-24 16:00:00 4.8 5 Sudeste 9 Este 0 -- -- 98
2020-01-24 15:00:00 4.6 3 Sudeste 7 Sudeste 0 -- -- 100
2020-01-24 14:00:00 4 4 Sudeste 9 Este 0 -- -- 100
2020-01-24 13:00:00 3.6 5 Sudeste 10 Este 0 -- -- 100
2020-01-24 12:00:00 3.1 6 Sudeste 15 Sudeste 0 -- -- 100
2020-01-24 11:00:00 3.2 9 Sudeste 16 Este 0 -- -- 100
2020-01-24 10:00:00 3 3 Sur 15 Sudeste 0 -- -- 100
2020-01-24 09:00:00 2.8 3 Sur 12 Sudeste 0 -- -- 100
2020-01-24 08:00:00 2.8 8 Este 13 Este 0 -- -- 100
2020-01-24 07:00:00 2.7 5 Sur 15 Sudeste 0 -- -- 100
2020-01-24 06:00:00 2.8 6 Sudeste 13 Este 0 -- -- 100
2020-01-24 05:00:00 2.8 9 Sudeste 18 Sudeste 0 -- -- 100
2020-01-24 04:00:00 3.2 5 Este 12 Este 0 -- -- 100
2020-01-24 03:00:00 3.4 9 Este 14 Este 0 -- -- 100
2020-01-24 02:00:00 3.7 6 Sudeste 10 Sudeste 0 -- -- 99
2020-01-24 01:00:00 4 5 Sudeste 14 Este 0 -- -- 99
2020-01-24 00:00:00 4.1 8 Este 13 Sudeste 0 -- -- 99
2020-01-23 23:00:00 4.4 5 Sudeste 12 Sudeste 0 -- -- 97
2020-01-23 22:00:00 4.6 3 Sudeste 6 Sur 0 -- -- 97
2020-01-23 21:00:00 4.5 4 Sudoeste 8 Sur 0 -- -- 98
2020-01-23 20:00:00 4.3 4 Sudoeste 19 Este 0 -- -- 98
2020-01-23 19:00:00 4.5 10 Sudeste 24 Este 0 -- -- 96
2020-01-23 18:00:00 4.7 16 Sudeste 26 Este 0 -- -- 93
2020-01-23 17:00:00 6 15 Sudeste 22 Sudeste 0 -- -- 90
2020-01-23 16:00:00 6.5 9 Este 15 Este 0 -- -- 90
2020-01-23 15:00:00 5.4 3 Nordeste 9 Norte 0 -- -- 92
2020-01-23 14:00:00 4.9 3 Este 8 Nordeste 0 -- -- 92
2020-01-23 13:00:00 4.5 0 Calma 8 Nordeste 0 -- -- 94
2020-01-23 12:00:00 4 0 Calma 7 Norte 0 -- -- 96
2020-01-23 11:00:00 3.5 3 Nordeste 6 Nordeste 0 -- -- 99
2020-01-23 10:00:00 3.2 3 Sudoeste 6 Sudoeste 0 -- -- 100
2020-01-23 09:00:00 3.1 4 Sudoeste 7 Sudoeste 0 -- -- 100
2020-01-23 08:00:00 3 0 Calma 6 Sur 0 -- -- 100
2020-01-23 07:00:00 3 3 Sur 8 Sudeste 0 -- -- 100
2020-01-23 06:00:00 3.3 6 Sudeste 10 Sudeste 0 -- -- 100
2020-01-23 05:00:00 3.4 3 Sur 7 Sur 0 -- -- 100
2020-01-23 04:00:00 3.4 2 Sur 6 Sudoeste 0 -- -- 100
2020-01-23 03:00:00 3.4 3 Sudoeste 8 Sudoeste 0 -- -- 100
2020-01-23 02:00:00 3.5 3 Sur 7 Sur 0 -- -- 100
2020-01-23 01:00:00 3.4 5 Sur 8 Sur 0 -- -- 100
2020-01-23 00:00:00 3.7 4 Este 13 Sudeste 0 -- -- 99
2020-01-22 23:00:00 4.1 9 Sudeste 13 Sudeste 0 -- -- 98
2020-01-22 22:00:00 4.1 7 Sudeste 12 Este 0 -- -- 99
2020-01-22 21:00:00 4 4 Sudeste 7 Sur 0 -- -- 97
2020-01-22 20:00:00 3.9 3 Sur 11 Sur 0 -- -- 96
2020-01-22 19:00:00 4 3 Sudoeste 12 Sur 0 -- -- 96
2020-01-22 18:00:00 4.1 7 Sur 14 Sur 0 -- -- 94
2020-01-22 17:00:00 4.6 10 Sur 20 Sudeste 0 -- -- 93
2020-01-22 16:00:00 5.2 12 Sudeste 17 Sudeste 0 -- -- 93
2020-01-22 15:00:00 6.3 5 Sudeste 13 Sudeste 0 -- -- 94
2020-01-22 14:00:00 5.3 8 Sudeste 15 Sudeste 0 -- -- 96
2020-01-22 13:00:00 4.7 8 Sudeste 14 Sudeste 0 -- -- 97
2020-01-22 12:00:00 3.7 4 Sur 11 Sur 0 -- -- 100
2020-01-22 11:00:00 2.9 5 Sur 14 Sudeste 0 -- -- 100
2020-01-22 10:00:00 2.8 6 Sudeste 13 Este 0 -- -- 100
2020-01-22 09:00:00 2.5 4 Este 7 Este 0 -- -- 100
2020-01-22 08:00:00 2.6 8 Este 19 Este 0 -- -- 100
2020-01-22 07:00:00 2.3 3 Norte 15 Este 0 -- -- 100
2020-01-22 06:00:00 2.2 5 Este 8 Este 0.2 -- -- 100
2020-01-22 05:00:00 2.4 2 Este 20 Este 0.2 -- -- 100
2020-01-22 04:00:00 2.6 15 Este 23 Nordeste 0 -- -- 99
2020-01-22 03:00:00 2.2 10 Este 15 Nordeste 0 -- -- 100
2020-01-22 02:00:00 2.2 9 Nordeste 14 Nordeste 0 -- -- 100
2020-01-22 01:00:00 1.6 0 Calma 4 Nordeste 0 -- -- 98
2020-01-22 00:00:00 1.8 3 Nordeste 19 Nordeste 0.2 -- -- 97
2020-01-21 23:00:00 1.8 10 Nordeste 18 Este 0.4 -- -- 97
2020-01-21 22:00:00 1.6 10 Nordeste 17 Nordeste 0.2 -- -- 98
2020-01-21 21:00:00 1 0 Calma 8 Nordeste 0.2 -- -- 100
2020-01-21 20:00:00 0.7 0 Calma 8 Sudoeste 0.4 -- -- 100
2020-01-21 19:00:00 0.8 3 Sudeste 8 Sudeste 0.2 -- -- 100
2020-01-21 18:00:00 0.9 6 Este 14 Nordeste 0.8 -- -- 100
2020-01-21 17:00:00 0.4 7 Nordeste 21 Nordeste 1.2 -- -- 100
2020-01-21 16:00:00 0.8 12 Norte 20 Norte 0.8 -- -- 100
2020-01-21 15:00:00 0.6 10 Nordeste 19 Nordeste 1 -- -- 100
2020-01-21 14:00:00 0.7 5 Este 18 Norte 0.8 -- -- 100
2020-01-21 13:00:00 1.5 16 Norte 31 Nordeste 1.4 -- -- 97
2020-01-21 12:00:00 2.1 12 Nordeste 22 Nordeste 0 -- -- 94
2020-01-21 11:00:00 1.3 6 Nordeste 14 Nordeste 0.2 -- -- 96
2020-01-21 10:00:00 1.5 2 Nordeste 21 Nordeste 0 -- -- 89
2020-01-21 09:00:00 1.6 4 Nordeste 29 Nordeste 0 -- -- 87
2020-01-21 08:00:00 1.4 6 Norte 18 Nordeste 0 -- -- 85
2020-01-21 07:00:00 0.6 0 Calma 16 Nordeste 0 -- -- 87
2020-01-21 06:00:00 0.9 11 Nordeste 26 Nordeste 0 -- -- 84
2020-01-21 05:00:00 0.8 14 Este 24 Este 0 -- -- 86
2020-01-21 04:00:00 0.8 20 Este 30 Nordeste 0 -- -- 83
2020-01-21 03:00:00 0.2 9 Nordeste 21 Este 0 -- -- 86
2020-01-21 02:00:00 -0.4 2 Nordeste 17 Nordeste 0 -- -- 89
2020-01-21 01:00:00 0.4 12 Este 18 Nordeste 0 -- -- 86
2020-01-21 00:00:00 0.9 8 Este 17 Nordeste 0 -- -- 88
2020-01-20 23:00:00 0.9 14 Nordeste 19 Este 0 -- -- 87
2020-01-20 22:00:00 0.5 9 Nordeste 22 Nordeste 0 -- -- 86
2020-01-20 21:00:00 0.4 16 Nordeste 27 Nordeste 0 -- -- 84
2020-01-20 20:00:00 0.1 8 Nordeste 15 Nordeste 0 -- -- 83
2020-01-20 19:00:00 -0.2 8 Nordeste 19 Nordeste 0 -- -- 83
2020-01-20 18:00:00 0.5 12 Nordeste 21 Nordeste 0 -- -- 79
2020-01-20 17:00:00 1 16 Nordeste 24 Nordeste 0 -- -- 76
2020-01-20 16:00:00 1.3 15 Nordeste 27 Nordeste 0 -- -- 76
2020-01-20 15:00:00 1.6 17 Nordeste 29 Nordeste 0 -- -- 77
2020-01-20 14:00:00 1.2 22 Nordeste 32 Este 0 -- -- 76
2020-01-20 13:00:00 1 18 Nordeste 33 Este 0 -- -- 75
2020-01-20 12:00:00 1 22 Nordeste 34 Nordeste 0 -- -- 73
2020-01-20 11:00:00 1.1 26 Nordeste 41 Este 0 -- -- 73
2020-01-20 10:00:00 0.5 19 Nordeste 40 Nordeste 0 -- -- 72
2020-01-20 09:00:00 0 18 Nordeste 36 Nordeste 0 -- -- 76
2020-01-20 08:00:00 0 17 Nordeste 24 Nordeste 0 -- -- 79
2020-01-20 07:00:00 -0.3 5 Nordeste 25 Nordeste 0 -- -- 78
2020-01-20 06:00:00 -0.1 18 Nordeste 35 Nordeste 0 -- -- 77
2020-01-20 05:00:00 0.4 27 Nordeste 43 Nordeste 0 -- -- 76
2020-01-20 04:00:00 0.7 29 Nordeste 43 Nordeste 0 -- -- 77
2020-01-20 03:00:00 0.9 28 Nordeste 41 Nordeste 0 -- -- 77
2020-01-20 02:00:00 1.2 17 Nordeste 28 Nordeste 0 -- -- 71
2020-01-20 01:00:00 1.2 14 Nordeste 36 Nordeste 0 -- -- 77
2020-01-20 00:00:00 1.5 19 Nordeste 34 Este 0 -- -- 74
2020-01-19 23:00:00 1.8 10 Nordeste 49 Nordeste 0 -- -- 70
2020-01-19 22:00:00 2.2 24 Nordeste 46 Nordeste 0 -- -- 68
2020-01-19 21:00:00 2.1 23 Nordeste 50 Nordeste 0 -- -- 71
2020-01-19 20:00:00 2.4 31 Nordeste 48 Nordeste 0 -- -- 69
2020-01-19 19:00:00 2.3 20 Nordeste 32 Nordeste 0 -- -- 71
2020-01-19 18:00:00 2.7 24 Nordeste 39 Nordeste 0 -- -- 69
2020-01-19 17:00:00 3.4 22 Norte 40 Norte 0 -- -- 69
2020-01-19 16:00:00 4.2 24 Norte 46 Norte 0 -- -- 72
2020-01-19 15:00:00 4.5 32 Norte 46 Norte 0 -- -- 71
2020-01-19 14:00:00 4.9 32 Norte 50 Norte 0 -- -- 74
2020-01-19 13:00:00 4.8 32 Norte 46 Norte 0 -- -- 75
2020-01-19 12:00:00 4.6 25 Norte 35 Norte 0 -- -- 79
2020-01-19 11:00:00 3.3 23 Nordeste 33 Norte 0 -- -- 82
2020-01-19 10:00:00 3.4 17 Nordeste 31 Norte 0 -- -- 83
2020-01-19 09:00:00 3.5 25 Nordeste 37 Nordeste 0.4 -- -- 84
2020-01-19 08:00:00 3.6 13 Nordeste 32 Nordeste 0 -- -- 93
2020-01-19 07:00:00 4 21 Norte 36 Norte 0 -- -- 91
2020-01-19 06:00:00 4.6 18 Norte 28 Norte 0.2 -- -- 91
2020-01-19 05:00:00 4.4 12 Norte 20 Norte 0 -- -- 97
2020-01-19 04:00:00 3.4 2 Norte 4 Noroeste 0.2 -- -- 100
2020-01-19 03:00:00 2.6 0 Calma 5 Sudoeste 0 -- -- 100
2020-01-19 02:00:00 1.9 0 Calma 6 Oeste 0 -- -- 100
2020-01-19 01:00:00 2 5 Sur 11 Sur 0 -- -- 100
2020-01-19 00:00:00 2.3 2 Sur 11 Sur 0 -- -- 100
2020-01-18 23:00:00 1.9 6 Sur 15 Sudoeste 0 -- -- 100
2020-01-18 22:00:00 1.9 9 Sur 15 Sur 0 -- -- 100
2020-01-18 21:00:00 2.6 9 Sudoeste 13 Sudoeste 0.2 -- -- 100
2020-01-18 20:00:00 2.8 4 Norte 29 Norte 5.2 -- -- 100
2020-01-18 19:00:00 3.8 12 Norte 48 Norte 5 -- -- 100
2020-01-18 18:00:00 6.8 12 Sudeste 30 Sudeste 0.2 -- -- 94
2020-01-18 17:00:00 9.6 21 Sudoeste 42 Sudoeste 0 -- -- 94
2020-01-18 16:00:00 10.3 19 Sudoeste 41 Sur 0 -- -- 82
2020-01-18 15:00:00 10.2 18 Sudoeste 40 Sudoeste 0 -- -- 79
2020-01-18 14:00:00 9.8 21 Sudoeste 37 Sur 0 -- -- 77
2020-01-18 13:00:00 9.2 24 Sudoeste 36 Sudoeste 0 -- -- 74
2020-01-18 12:00:00 9 18 Sudoeste 31 Sudoeste 0 -- -- 68
2020-01-18 11:00:00 7.1 16 Sudoeste 27 Sudoeste 0 -- -- 77
2020-01-18 10:00:00 2.5 0 Calma 4 Sudoeste 0 -- -- 95
2020-01-18 09:00:00 1.4 2 Sudoeste 17 Sudeste 0 -- -- 94
2020-01-18 08:00:00 2.4 15 Sudeste 19 Sudeste 0 -- -- 89
2020-01-18 07:00:00 1.9 3 Sudoeste 5 Oeste 0 -- -- 94
2020-01-18 06:00:00 1.9 2 Sur 11 Nordeste 0 -- -- 95
2020-01-18 05:00:00 2 5 Nordeste 9 Nordeste 0 -- -- 96
2020-01-18 04:00:00 1.5 0 Calma 4 Sudoeste 0 -- -- 93
2020-01-18 03:00:00 1.5 0 Calma 7 Sur 0 -- -- 91
2020-01-18 02:00:00 1.1 3 Sudoeste 12 Sur 0 -- -- 93
2020-01-18 01:00:00 1.7 8 Sur 12 Sur 0 -- -- 90
2020-01-18 00:00:00 1.7 0 Calma 10 Sur 0 -- -- 89
2020-01-17 23:00:00 3.3 5 Sur 16 Sur 0 -- -- 83
2020-01-17 22:00:00 4 5 Sur 13 Sur 0 -- -- 81
2020-01-17 21:00:00 4.6 4 Sur 14 Sur 0 -- -- 78
2020-01-17 20:00:00 4.8 6 Sudeste 12 Sudeste 0 -- -- 75
2020-01-17 19:00:00 5.9 4 Este 23 Sudoeste 0 -- -- 71
2020-01-17 18:00:00 7.2 13 Sudoeste 24 Sudoeste 0 -- -- 65
2020-01-17 17:00:00 8.1 16 Sudoeste 33 Oeste 0 -- -- 64
2020-01-17 16:00:00 9 18 Sudoeste 32 Sudoeste 0 -- -- 60
2020-01-17 15:00:00 9.9 24 Oeste 44 Sudoeste 0 -- -- 59
2020-01-17 14:00:00 8.8 23 Oeste 41 Oeste 0 -- -- 67
2020-01-17 13:00:00 9 22 Oeste 43 Noroeste 0 -- -- 71
2020-01-17 12:00:00 8.7 24 Oeste 37 Oeste 0 -- -- 70
2020-01-17 11:00:00 8 22 Oeste 37 Sudoeste 0 -- -- 75
2020-01-17 10:00:00 7 20 Oeste 37 Oeste 0 -- -- 81
2020-01-17 09:00:00 6.7 21 Sudoeste 43 Oeste 0 -- -- 86
2020-01-17 08:00:00 7.4 20 Oeste 43 Sudoeste 0 -- -- 88
2020-01-17 07:00:00 7.5 26 Sudoeste 49 Sudoeste 1 -- -- 90
2020-01-17 06:00:00 7.1 18 Sudoeste 40 Sudoeste 0 -- -- 92
2020-01-17 05:00:00 7.3 20 Sudoeste 46 Sudoeste 0 -- -- 87
2020-01-17 04:00:00 7.2 26 Sudoeste 47 Sudoeste 0 -- -- 86
2020-01-17 03:00:00 7.1 22 Sudoeste 54 Sudoeste 0 -- -- 86
2020-01-17 02:00:00 7.6 42 Sudoeste 77 Sudoeste 0 -- -- 80
2020-01-17 01:00:00 8.5 45 Sudoeste 65 Sudoeste 0 -- -- 74
2020-01-17 00:00:00 8.3 34 Sudoeste 58 Sudoeste 0.2 -- -- 76
2020-01-16 23:00:00 7.7 26 Sudoeste 58 Sudoeste 0.2 -- -- 79
2020-01-16 22:00:00 10 32 Sudoeste 59 Sudoeste 0 -- -- 64
2020-01-16 21:00:00 10.1 18 Sudoeste 33 Sudoeste 0 -- -- 63
2020-01-16 20:00:00 10.1 12 Sudoeste 24 Sudoeste 0 -- -- 63
2020-01-16 19:00:00 10.3 11 Sur 21 Sur 0 -- -- 69
2020-01-16 18:00:00 11.8 12 Sudoeste 35 Sudoeste 0 -- -- 67
2020-01-16 17:00:00 12.8 19 Sudoeste 42 Sudoeste 0 -- -- 66
2020-01-16 16:00:00 13.4 23 Sudoeste 44 Sudoeste 0 -- -- 65
2020-01-16 15:00:00 12.8 28 Sudoeste 55 Sudoeste 0 -- -- 68
2020-01-16 14:00:00 13.6 29 Sudoeste 46 Sudoeste 0 -- -- 65
2020-01-16 13:00:00 12.3 30 Sudoeste 43 Sudoeste 0 -- -- 70
2020-01-16 12:00:00 11.3 15 Sudoeste 32 Sudoeste 0 -- -- 74
2020-01-16 11:00:00 10.9 19 Sudoeste 35 Sudoeste 0 -- -- 76
2020-01-16 10:00:00 8.2 13 Sudoeste 23 Sudoeste 0 -- -- 88
2020-01-16 09:00:00 7.4 3 Sudoeste 21 Sudoeste 0 -- -- 87
2020-01-16 08:00:00 7.3 15 Sur 22 Sudoeste 0 -- -- 88
2020-01-16 07:00:00 6.6 9 Sudoeste 15 Sudoeste 0 -- -- 91
2020-01-16 06:00:00 7.1 10 Sudoeste 18 Sudoeste 0 -- -- 89
2020-01-16 05:00:00 7.4 9 Sudoeste 15 Sur 0 -- -- 90
2020-01-16 04:00:00 7.9 9 Sudoeste 17 Sur 0 -- -- 88
2020-01-16 03:00:00 7.2 9 Sudoeste 16 Sudoeste 0 -- -- 92
2020-01-16 02:00:00 7.6 10 Sudoeste 24 Sudoeste 0 -- -- 93
2020-01-16 01:00:00 8.3 19 Sudoeste 29 Sudoeste 0 -- -- 91
2020-01-16 00:00:00 7.8 15 Sudoeste 32 Sudoeste 0 -- -- 92
2020-01-15 23:00:00 6.8 11 Sudoeste 15 Sudoeste 0 -- -- 94
2020-01-15 22:00:00 6.6 4 Sur 16 Sudoeste 0 -- -- 92
2020-01-15 21:00:00 6.9 14 Sudoeste 20 Sur 0 -- -- 91
2020-01-15 20:00:00 8.1 10 Sur 24 Sudoeste 0 -- -- 86
2020-01-15 19:00:00 8.9 15 Sudoeste 26 Sudoeste 0 -- -- 83
2020-01-15 18:00:00 9.5 15 Sudoeste 40 Sudoeste 0 -- -- 78
2020-01-15 17:00:00 10.5 22 Sudoeste 35 Sudoeste 0 -- -- 74
2020-01-15 16:00:00 10.7 23 Sudoeste 39 Sudoeste 0 -- -- 72
2020-01-15 15:00:00 10.1 24 Sudoeste 37 Sudoeste 0 -- -- 75
2020-01-15 14:00:00 10.8 27 Sudoeste 53 Sudoeste 0 -- -- 71
2020-01-15 13:00:00 11.3 32 Sudoeste 52 Sudoeste 0 -- -- 68
2020-01-15 12:00:00 10.2 27 Sudoeste 45 Sudoeste 0 -- -- 70
2020-01-15 11:00:00 10.1 23 Sudoeste 42 Sudoeste 0 -- -- 64
2020-01-15 10:00:00 9.4 23 Sudoeste 45 Sudoeste 0 -- -- 67
2020-01-15 09:00:00 8.8 22 Sudoeste 40 Sudoeste 0 -- -- 67
2020-01-15 08:00:00 8.2 23 Sudoeste 41 Sudoeste 0 -- -- 67
2020-01-15 07:00:00 7.6 23 Sudoeste 39 Sudoeste 0 -- -- 73
2020-01-15 06:00:00 7.8 21 Sudoeste 58 Sudoeste 0 -- -- 75
2020-01-15 05:00:00 7.9 33 Sudoeste 60 Sudoeste 0 -- -- 76
2020-01-15 04:00:00 8.2 37 Sudoeste 52 Sudoeste 0 -- -- 76
2020-01-15 03:00:00 8.1 26 Sudoeste 44 Sudoeste 0 -- -- 76
2020-01-15 02:00:00 8.1 26 Sudoeste 40 Sudoeste 0 -- -- 79
2020-01-15 01:00:00 8 22 Sudoeste 39 Sudoeste 0 -- -- 76
2020-01-15 00:00:00 7.8 20 Sudoeste 33 Sudoeste 0 -- -- 77
2020-01-14 23:00:00 6.9 21 Sudoeste 36 Sudoeste 0 -- -- 80
2020-01-14 22:00:00 7.3 25 Sudoeste 42 Sudoeste 0 -- -- 78
2020-01-14 21:00:00 6.7 9 Sudoeste 20 Sudoeste 0 -- -- 77
2020-01-14 20:00:00 7.7 15 Sudoeste 25 Sudoeste 0 -- -- 73
2020-01-14 19:00:00 7.3 13 Sudoeste 26 Sudoeste 0 -- -- 73
2020-01-14 18:00:00 8 18 Sudoeste 44 Sudoeste 0 -- -- 69
2020-01-14 17:00:00 9.6 25 Sudoeste 51 Sudoeste 0 -- -- 65
2020-01-14 16:00:00 9.7 31 Sudoeste 52 Sudoeste 0 -- -- 65
2020-01-14 15:00:00 9 30 Sudoeste 48 Sudoeste 0 -- -- 66
2020-01-14 14:00:00 9.1 28 Sudoeste 47 Sudoeste 0 -- -- 67
2020-01-14 13:00:00 7.6 30 Sudoeste 50 Oeste 0 -- -- 72
2020-01-14 12:00:00 6.5 27 Sudoeste 42 Sudoeste 0 -- -- 76
2020-01-14 11:00:00 5 10 Sudoeste 37 Sudoeste 0 -- -- 82
2020-01-14 10:00:00 4.6 17 Sudoeste 39 Sudoeste 0 -- -- 84
2020-01-14 09:00:00 4.4 24 Sudoeste 41 Sudoeste 0 -- -- 84
2020-01-14 08:00:00 4.2 21 Sudoeste 38 Sudoeste 0 -- -- 88
2020-01-14 07:00:00 4.3 26 Sudoeste 41 Sudoeste 0 -- -- 87
2020-01-14 06:00:00 4.3 27 Sudoeste 41 Sudoeste 0 -- -- 88
2020-01-14 05:00:00 4.2 17 Sudoeste 41 Sudoeste 0 -- -- 86
2020-01-14 04:00:00 4.2 25 Sudoeste 41 Sudoeste 0 -- -- 84
2020-01-14 03:00:00 4.1 15 Sudoeste 36 Sudoeste 0 -- -- 85
2020-01-14 02:00:00 3.9 15 Sudoeste 29 Sudoeste 0 -- -- 82
2020-01-14 01:00:00 1.7 4 Nordeste 10 Noroeste 0 -- -- 84
2020-01-14 00:00:00 0.6 3 Noroeste 9 Noroeste 0 -- -- 92
2020-01-13 23:00:00 0.9 4 Sudoeste 20 Noroeste 0 -- -- 94
2020-01-13 22:00:00 1.2 12 Noroeste 22 Noroeste 0 -- -- 94
2020-01-13 21:00:00 0.6 6 Oeste 13 Oeste 0 -- -- 95
2020-01-13 20:00:00 1.2 5 Oeste 12 Noroeste 0 -- -- 91
2020-01-13 19:00:00 2.1 3 Noroeste 19 Sudoeste 0 -- -- 87
2020-01-13 18:00:00 5.4 12 Sudoeste 34 Sudoeste 0 -- -- 76
2020-01-13 17:00:00 7.4 21 Sudoeste 40 Sudoeste 0 -- -- 66
2020-01-13 16:00:00 8.3 24 Sudoeste 40 Sudoeste 0 -- -- 59
2020-01-13 15:00:00 8.8 20 Sudoeste 36 Oeste 0 -- -- 59
2020-01-13 14:00:00 6.6 23 Oeste 37 Oeste 0 -- -- 66
2020-01-13 13:00:00 4.3 2 Nordeste 10 Nordeste 0 -- -- 83
2020-01-13 12:00:00 2 7 Nordeste 10 Nordeste 0 -- -- 95
2020-01-13 11:00:00 0.3 9 Nordeste 11 Nordeste 0 -- -- 98
2020-01-13 10:00:00 -1.3 5 Este 9 Este 0 -- -- 100
2020-01-13 09:00:00 -2.9 0 Calma 3 Oeste 0 -- -- 100
2020-01-13 08:00:00 -2.9 0 Calma 5 Nordeste 0 -- -- 99
2020-01-13 07:00:00 -3.1 0 Calma 0 Calma 0 -- -- 99
2020-01-13 06:00:00 -2.6 0 Calma 12 Sur 0 -- -- 97
2020-01-13 05:00:00 -1.5 8 Sur 14 Sur 0 -- -- 98
2020-01-13 04:00:00 -1.6 5 Sudoeste 13 Sur 0 -- -- 98
2020-01-13 03:00:00 -1.4 9 Sur 18 Sur 0 -- -- 100
2020-01-13 02:00:00 -1.1 12 Sur 19 Sur 0 -- -- 100
2020-01-13 01:00:00 -0.8 13 Sur 30 Sur 0 -- -- 100
2020-01-13 00:00:00 0 16 Sur 24 Sur 0 -- -- 97
2020-01-12 23:00:00 0.9 13 Sur 21 Sur 0 -- -- 95
2020-01-12 22:00:00 2 9 Sur 17 Sur 0 -- -- 92
2020-01-12 21:00:00 3.2 9 Sur 17 Sur 0 -- -- 90
2020-01-12 20:00:00 4.2 6 Sudoeste 10 Sudoeste 0 -- -- 89
2020-01-12 19:00:00 4.7 0 Calma 4 Sudoeste 0 -- -- 86
2020-01-12 18:00:00 7.9 0 Calma -- -- 0 -- -- 76
2020-01-12 17:00:00 9.8 0 Calma 5 Norte 0 -- -- 67
2020-01-12 16:00:00 9.4 3 Norte 5 Norte 0 -- -- 67
2020-01-12 15:00:00 7.6 3 Norte 5 Norte 0 -- -- 93
2020-01-12 14:00:00 4.2 0 Calma 4 Norte 0 -- -- 100
2020-01-12 13:00:00 0.5 0 Calma 6 Norte 0 -- -- 100
2020-01-12 12:00:00 -0.9 0 Calma -- -- 0 -- -- 100
2020-01-12 11:00:00 -1.7 0 Calma -- -- 0 -- -- 100
2020-01-12 10:00:00 -2.2 0 Calma 4 Nordeste 0 -- -- 100
2020-01-12 09:00:00 -2.2 2 Nordeste 6 Norte 0 -- -- 100
2020-01-12 08:00:00 -1.8 3 Norte 7 Norte 0 -- -- 100
2020-01-12 07:00:00 -1.7 4 Norte 8 Norte 0 -- -- 100
2020-01-12 06:00:00 -1.7 4 Norte 5 Norte 0 -- -- 100
2020-01-12 05:00:00 -2 0 Calma 3 Norte 0 -- -- 100
2020-01-12 04:00:00 -2.9 2 Norte 5 Norte 0 -- -- 100
2020-01-12 03:00:00 -2.3 0 Calma 2 Sudoeste 0 -- -- 99
2020-01-12 02:00:00 -1.5 0 Calma 10 Sudoeste 0 -- -- 97
2020-01-12 01:00:00 -0.2 5 Sudoeste 8 Sudoeste 0 -- -- 98
2020-01-12 00:00:00 0.3 0 Calma 12 Sudoeste 0 -- -- 95
2020-01-11 23:00:00 1.8 9 Sudoeste 16 Sudoeste 0 -- -- 94
2020-01-11 22:00:00 2.2 12 Sur 17 Sudoeste 0 -- -- 93
2020-01-11 21:00:00 2.7 10 Sudoeste 20 Sudoeste 0 -- -- 91
2020-01-11 20:00:00 3.6 12 Sur 19 Sudoeste 0 -- -- 87
2020-01-11 19:00:00 4.7 14 Sudoeste 18 Sudoeste 0 -- -- 84
2020-01-11 18:00:00 6.6 9 Sudoeste 15 Sudoeste 0 -- -- 74
2020-01-11 17:00:00 9.4 2 Oeste 6 Norte 0 -- -- 73
2020-01-11 16:00:00 8.4 0 Calma 6 Nordeste 0 -- -- 75
2020-01-11 15:00:00 7.4 2 Norte 10 Noroeste 0 -- -- 80
2020-01-11 14:00:00 6.7 4 Noroeste 10 Norte 0 -- -- 82
2020-01-11 13:00:00 5.6 4 Norte 8 Nordeste 0 -- -- 86
2020-01-11 12:00:00 3.5 0 Calma 4 Noroeste 0 -- -- 95
2020-01-11 11:00:00 0.2 0 Calma 6 Nordeste 0 -- -- 100
2020-01-11 10:00:00 0.4 0 Calma 6 Noroeste 0 -- -- 100
2020-01-11 09:00:00 0.5 0 Calma 9 Sudoeste 0 -- -- 100
2020-01-11 08:00:00 0.1 0 Calma 4 Sudoeste 0 -- -- 100
2020-01-11 07:00:00 0.4 0 Calma 6 Sudoeste 0 -- -- 100
2020-01-11 06:00:00 0.6 2 Oeste 8 Sur 0 -- -- 100
2020-01-11 05:00:00 0.2 4 Sudoeste 8 Sur 0 -- -- 99
2020-01-11 04:00:00 0.3 3 Sudoeste 11 Sur 0 -- -- 99
2020-01-11 03:00:00 0 5 Sudoeste 10 Sur 0 -- -- 99
2020-01-11 02:00:00 -0.1 3 Sur 5 Sur 0 -- -- 100
2020-01-11 01:00:00 1.1 5 Sudoeste 10 Sur 0 -- -- 97
2020-01-11 00:00:00 1.8 4 Sudoeste 9 Sur 0 -- -- 96
2020-01-10 23:00:00 1.5 3 Sudoeste 7 Oeste 0 -- -- 98
2020-01-10 22:00:00 2.6 2 Sudoeste 8 Este 0 -- -- 93
2020-01-10 21:00:00 3.5 3 Sur 10 Sudoeste 0 -- -- 94
2020-01-10 20:00:00 3.4 5 Sur 9 Sudoeste 0 -- -- 96
2020-01-10 19:00:00 4.7 4 Noroeste 15 Norte 0.4 -- -- 91
2020-01-10 18:00:00 5.4 3 Norte 6 Nordeste 0 -- -- 97
2020-01-10 17:00:00 5.7 6 Nordeste 14 Nordeste 0.2 -- -- 93
2020-01-10 16:00:00 6.5 11 Norte 19 Norte 0 -- -- 84
2020-01-10 15:00:00 6.7 6 Norte 26 Norte 0 -- -- 83
2020-01-10 14:00:00 6.8 15 Norte 24 Norte 0 -- -- 83
2020-01-10 13:00:00 6.5 4 Noroeste 14 Oeste 0 -- -- 78
2020-01-10 12:00:00 6.2 7 Oeste 13 Oeste 0 -- -- 83
2020-01-10 11:00:00 5.1 5 Oeste 18 Noroeste 0 -- -- 87
2020-01-10 10:00:00 3.8 0 Calma 9 Oeste 0 -- -- 91
2020-01-10 09:00:00 3.6 4 Noroeste 14 Noroeste 0 -- -- 89
2020-01-10 08:00:00 3.3 5 Noroeste 17 Noroeste 0 -- -- 88
2020-01-10 07:00:00 4 6 Noroeste 18 Norte 0 -- -- 85
2020-01-10 06:00:00 4.1 6 Noroeste 28 Noroeste 0 -- -- 87
2020-01-10 05:00:00 2.6 2 Oeste 9 Sudoeste 0 -- -- 90
2020-01-10 04:00:00 2.3 0 Calma 8 Oeste 0 -- -- 93
2020-01-10 03:00:00 2.3 3 Sudoeste 6 Noroeste 0 -- -- 94
2020-01-10 02:00:00 4.1 0 Calma 15 Norte 0 -- -- 86
2020-01-10 01:00:00 5.3 0 Calma 16 Norte 0 -- -- 89
2020-01-10 00:00:00 6 8 Norte 24 Nordeste 0.4 -- -- 92
2020-01-09 23:00:00 7 7 Sudoeste 10 Sudoeste 0 -- -- 97
2020-01-09 22:00:00 6.3 5 Este 12 Este 0 -- -- 97
2020-01-09 21:00:00 7 5 Este 13 Nordeste 0 -- -- 98
2020-01-09 20:00:00 7 6 Este 12 Norte 0 -- -- 99
2020-01-09 19:00:00 7.5 8 Nordeste 25 Sudoeste 0 -- -- 96
2020-01-09 18:00:00 8 20 Sudoeste 37 Sudoeste 0 -- -- 95
2020-01-09 17:00:00 8.9 22 Sudoeste 34 Sudoeste 0 -- -- 87
2020-01-09 16:00:00 10 26 Sudoeste 47 Sudoeste 0 -- -- 80
2020-01-09 15:00:00 11.1 26 Sudoeste 41 Sudoeste 0 -- -- 76
2020-01-09 14:00:00 10.6 30 Sudoeste 45 Sudoeste 0 -- -- 76
2020-01-09 13:00:00 8.6 28 Sudoeste 40 Sudoeste 0 -- -- 90
2020-01-09 12:00:00 3.2 2 Nordeste 7 Nordeste 0 -- -- 100
2020-01-09 11:00:00 1.8 0 Calma 6 Sudeste 0 -- -- 100
2020-01-09 10:00:00 1.5 4 Sudoeste 6 Sudoeste 0 -- -- 100
2020-01-09 09:00:00 1.2 0 Calma 12 Sudeste 0 -- -- 100
2020-01-09 08:00:00 1.2 5 Sudeste 9 Sudeste 0 -- -- 100
2020-01-09 07:00:00 1.6 4 Sudeste 10 Sudeste 0 -- -- 100
2020-01-09 06:00:00 2 7 Sudeste 10 Sudeste 0 -- -- 100
2020-01-09 05:00:00 2.4 3 Sudeste 9 Sudeste 0 -- -- 100
2020-01-09 04:00:00 2.4 6 Sudeste 10 Sudeste 0 -- -- 100
2020-01-09 03:00:00 2.7 5 Sur 11 Sudeste 0 -- -- 100
2020-01-09 02:00:00 2.2 8 Sudeste 14 Sudeste 0 -- -- 100
2020-01-09 01:00:00 2.2 8 Sudeste 12 Sudeste 0 -- -- 100
2020-01-09 00:00:00 2.6 0 Calma 4 Sudeste 0 -- -- 96
2020-01-08 23:00:00 4.1 0 Calma 15 Sudeste 0 -- -- 94
2020-01-08 22:00:00 4.8 5 Sudoeste 10 Sur 0 -- -- 95
2020-01-08 21:00:00 5.5 3 Sur 14 Oeste 0 -- -- 94
2020-01-08 20:00:00 6.5 5 Oeste 26 Sudeste 0 -- -- 93
2020-01-08 19:00:00 7.2 3 Sudeste 23 Sudeste 0 -- -- 90
2020-01-08 18:00:00 10.2 6 Sudeste 11 Nordeste 0 -- -- 80
2020-01-08 17:00:00 13 8 Este 12 Este 0 -- -- 73
2020-01-08 16:00:00 13.5 7 Norte 12 Nordeste 0 -- -- 70
2020-01-08 15:00:00 13.4 9 Nordeste 15 Nordeste 0 -- -- 72
2020-01-08 14:00:00 11.4 5 Norte 9 Norte 0 -- -- 76
2020-01-08 13:00:00 10.4 4 Norte 8 Norte 0 -- -- 78
2020-01-08 12:00:00 9.6 3 Norte 11 Sur 0 -- -- 78
2020-01-08 11:00:00 6.2 8 Sur 13 Sur 0 -- -- 84
2020-01-08 10:00:00 2.2 0 Calma 11 Sur 0 -- -- 91
2020-01-08 09:00:00 1.9 7 Sur 18 Sur 0 -- -- 90
2020-01-08 08:00:00 1.1 2 Sudoeste 10 Sudoeste 0 -- -- 92
2020-01-08 07:00:00 0.9 5 Sudoeste 13 Sudoeste 0 -- -- 90
2020-01-08 06:00:00 1.7 8 Sudoeste 13 Sur 0 -- -- 86
2020-01-08 05:00:00 1.7 8 Sur 12 Sur 0 -- -- 85
2020-01-08 04:00:00 1.7 3 Sudoeste 10 Sur 0 -- -- 84
2020-01-08 03:00:00 2.3 9 Sur 16 Sur 0 -- -- 81
2020-01-08 02:00:00 1.9 5 Sudoeste 16 Sur 0 -- -- 84
2020-01-08 01:00:00 2.3 10 Sur 18 Sur 0 -- -- 84
2020-01-08 00:00:00 2.5 5 Sudoeste 16 Sur 0 -- -- 85
2020-01-07 23:00:00 3.2 10 Sur 19 Sur 0 -- -- 85
2020-01-07 22:00:00 3.9 9 Sur 18 Sur 0 -- -- 83
2020-01-07 21:00:00 4.3 10 Sur 17 Sur 0 -- -- 83
2020-01-07 20:00:00 5.1 10 Sur 19 Sur 0 -- -- 82
2020-01-07 19:00:00 6.5 10 Sur 16 Sur 0 -- -- 79
2020-01-07 18:00:00 8.8 9 Sur 13 Sudoeste 0 -- -- 74
2020-01-07 17:00:00 12.5 7 Sudoeste 11 Sur 0 -- -- 65
2020-01-07 16:00:00 12.5 0 Calma 5 Nordeste 0 -- -- 65
2020-01-07 15:00:00 10.7 0 Calma 6 Nordeste 0 -- -- 68
2020-01-07 14:00:00 8.6 3 Norte 9 Norte 0 -- -- 73
2020-01-07 13:00:00 7.2 0 Calma 4 Nordeste 0 -- -- 75
2020-01-07 12:00:00 4.1 0 Calma 8 Nordeste 0 -- -- 81
2020-01-07 11:00:00 2.9 3 Oeste 13 Sudoeste 0 -- -- 82
2020-01-07 10:00:00 -0.1 4 Oeste 12 Sur 0 -- -- 90
2020-01-07 09:00:00 -1 9 Sur 15 Sur 0 -- -- 89
2020-01-07 08:00:00 -1.9 2 Sudoeste 18 Sur 0 -- -- 93
2020-01-07 07:00:00 -0.7 8 Sur 16 Sur 0 -- -- 89
2020-01-07 06:00:00 -0.7 9 Sur 18 Sur 0 -- -- 90
2020-01-07 05:00:00 -1.1 6 Sur 13 Sur 0 -- -- 91
2020-01-07 04:00:00 -1 6 Sur 13 Sudoeste 0 -- -- 92
2020-01-07 03:00:00 -0.8 7 Sur 14 Sur 0 -- -- 93
2020-01-07 02:00:00 -0.9 2 Sur 8 Sur 0 -- -- 95
2020-01-07 01:00:00 -0.8 4 Sudoeste 18 Sur 0 -- -- 94
2020-01-07 00:00:00 -0.3 10 Sudoeste 18 Sur 0 -- -- 95
2020-01-06 23:00:00 0.5 9 Sur 17 Sur 0 -- -- 94
2020-01-06 22:00:00 1 8 Sur 15 Sur 0 -- -- 95
2020-01-06 21:00:00 1.9 11 Sur 22 Sudeste 0 -- -- 93
2020-01-06 20:00:00 2.8 11 Sur 18 Sur 0 -- -- 90
2020-01-06 19:00:00 3.7 6 Sur 10 Sur 0 -- -- 87
2020-01-06 18:00:00 5.2 5 Norte 9 Nordeste 0 -- -- 83
2020-01-06 17:00:00 8 7 Norte 12 Norte 0 -- -- 75
2020-01-06 16:00:00 9.8 7 Norte 11 Nordeste 0 -- -- 70
2020-01-06 15:00:00 8.7 4 Este 12 Norte 0 -- -- 74
2020-01-06 14:00:00 6.2 5 Norte 10 Norte 0 -- -- 80
2020-01-06 13:00:00 4.6 4 Nordeste 8 Norte 0 -- -- 81
2020-01-06 12:00:00 2.6 5 Nordeste 6 Nordeste 0 -- -- 88
2020-01-06 11:00:00 1.3 0 Calma 3 Sudoeste 0 -- -- 92
2020-01-06 10:00:00 -1.5 2 Oeste 13 Sudoeste 0 -- -- 100